OE-11190 Weather Reports


time (UTC)temp
F
wind
direction
speed
knots
gust
knots
rain 1hr
in
rain 24hr
in
rain mn
in
humidity
%
barometer
mb
20260902074121 74 98 1.7 5.2 0.00 0.00 0.00 52 1020.7
20260902073507 73 119 2.6 5.2 0.00 0.00 0.00 54 1020.7
20260902072508 72 123 2.6 5.2 0.00 0.00 0.00 55 1020.6
20260902071321 72 119 2.6 5.2 0.00 0.00 0.00 56 1020.4
20260902070507 71 120 1.7 4.3 0.00 0.00 0.00 57 1020.4
20260902065507 70 131 1.7 3.5 0.00 0.00 0.00 59 1020.7
20260902064121 70 159 1.7 3.5 0.00 0.00 0.00 57 1020.7
20260902062508 65 1 1.7 3.5 0.00 0.00 0.00 69 1020.7
20260902061121 64 1 4.3 6.1 0.00 0.00 0.00 71 1020.7
20260902060508 63 347 5.2 7.0 0.00 0.00 0.00 73 1020.8
20260902055508 62 349 5.2 7.8 0.00 0.00 0.00 73 1020.8
20260902054121 62 349 5.2 8.7 0.00 0.00 0.00 73 1020.8
20260902053508 62 314 4.3 7.0 0.00 0.00 0.00 73 1020.8
20260902052507 62 339 5.2 7.0 0.00 0.00 0.00 72 1020.8
20260902051121 62 334 4.3 7.0 0.00 0.00 0.00 71 1020.8
20260902050507 62 349 6.1 7.0 0.00 0.00 0.00 68 1020.8
20260902045507 62 342 5.2 7.0 0.00 0.00 0.00 67 1020.8
20260902044121 62 341 5.2 7.8 0.00 0.00 0.00 67 1020.8
20260902043508 62 336 4.3 7.8 0.00 0.00 0.00 68 1020.8
20260902042508 62 282 2.6 3.5 0.00 0.00 0.00 70 1020.8
20260902041121 63 277 2.6 4.3 0.00 0.00 0.00 69 1021.1
20260902040507 63 4 4.3 5.2 0.00 0.00 0.00 66 1021.0
20260902035508 63 341 3.5 5.2 0.00 0.00 0.00 67 1021.1
20260902034508 63 297 2.6 4.3 0.00 0.00 0.00 67 1021.0
20260902033507 63 289 3.5 5.2 0.00 0.00 0.00 66 1020.8
20260902032507 63 337 5.2 7.8 0.00 0.00 0.00 65 1020.8
20260902031507 63 343 5.2 7.8 0.00 0.00 0.00 65 1020.7
20260902030508 63 339 5.2 7.8 0.00 0.00 0.00 65 1020.8
20260902025507 63 344 7.0 7.8 0.00 0.00 0.00 64 1020.7
20260902024508 63 331 5.2 7.0 0.00 0.00 0.00 65 1020.6
20260902023508 63 328 4.3 6.1 0.00 0.00 0.00 65 1020.7
20260902022507 63 337 5.2 7.8 0.00 0.00 0.00 66 1020.6
20260902021507 63 339 6.1 7.8 0.00 0.00 0.00 66 1020.7
20260902015508 63 340 5.2 7.8 0.00 0.00 0.00 67 1020.8
20260902014508 62 331 3.5 7.0 0.00 0.00 0.00 68 1020.8
20260902013507 63 331 3.5 6.1 0.00 0.00 0.00 67 1020.8
20260902012508 63 336 4.3 6.1 0.00 0.00 0.00 68 1020.8
20260902011507 64 346 7.8 8.7 0.00 0.00 0.00 66 1020.8
20260902010508 64 342 4.3 7.8 0.00 0.00 0.00 65 1020.7
20260902005508 64 339 3.5 6.1 0.00 0.00 0.00 65 1020.7
20260901221121 68 355 9.6 10.4 0.00 0.22 0.00 57 1020.3
20260901220508 68 355 9.6 11.3 0.00 0.23 0.22 54 1020.3
20260901215508 68 355 9.6 10.4 0.00 0.24 0.22 56 1020.3
20260901214121 69 352 7.8 9.6 0.00 0.27 0.22 56 1020.2
20260901213508 70 352 8.7 9.6 0.00 0.31 0.22 52 1020.2
20260901212508 69 352 7.8 9.6 0.00 0.32 0.22 53 1020.2
20260901211121 70 353 7.0 8.7 0.00 0.33 0.22 54 1020.1
20260901210507 70 353 6.1 8.7 0.00 0.37 0.22 54 1020.0
20260901205508 70 347 5.2 7.8 0.00 0.39 0.22 54 1020.1
20260901204122 71 321 3.5 7.0 0.00 0.39 0.22 52 1020.0
20260901203508 71 323 4.3 7.0 0.00 0.39 0.22 54 1020.0
20260901202508 71 338 3.5 7.0 0.00 0.39 0.22 54 1019.9
20260901201121 71 312 3.5 7.0 0.00 0.39 0.22 54 1019.9
20260901200508 71 324 4.3 7.0 0.00 0.39 0.22 52 1019.8
20260901194122 71 335 6.1 10.4 0.00 0.39 0.22 51 1019.7
20260901193508 71 345 6.1 10.4 0.00 0.39 0.22 50 1019.8
20260901192508 71 320 3.5 7.0 0.00 0.39 0.22 54 1019.6
20260901191121 71 312 3.5 7.0 0.00 0.39 0.22 54 1019.6
20260901190507 71 305 4.3 7.8 0.00 0.39 0.22 55 1019.6
20260901185508 72 299 5.2 6.1 0.00 0.39 0.22 54 1019.3
20260901184121 73 297 6.1 7.0 0.00 0.39 0.22 52 1019.3
20260901183508 73 297 5.2 6.1 0.00 0.39 0.22 52 1019.2
20260901182508 73 301 4.3 6.1 0.00 0.39 0.22 50 1019.0
20260901181121 74 311 3.5 7.8 0.00 0.39 0.22 48 1018.9
20260901180508 75 326 4.3 7.0 0.00 0.39 0.22 47 1018.8
20260901175508 76 318 4.3 7.8 0.00 0.39 0.22 42 1018.6
20260901174121 78 317 5.2 7.8 0.00 0.39 0.22 36 1018.5
20260901173508 78 313 5.2 9.6 0.00 0.39 0.22 35 1018.5
20260901172508 78 318 5.2 11.3 0.00 0.39 0.22 34 1018.4
20260901171121 79 317 6.1 12.2 0.00 0.39 0.22 33 1018.3
20260901170507 80 314 6.1 11.3 0.00 0.39 0.22 32 1018.3
20260901165507 80 305 3.5 12.2 0.00 0.39 0.22 31 1018.3
20260901164121 81 296 6.1 13.0 0.00 0.39 0.22 31 1018.2
20260901163508 81 298 5.2 11.3 0.00 0.39 0.22 31 1018.1
20260901162508 82 308 8.7 14.8 0.00 0.39 0.22 30 1018.2
20260901161121 82 304 4.3 8.7 0.00 0.39 0.22 30 1018.2
20260901160507 82 284 7.0 13.0 0.00 0.39 0.22 31 1018.2
20260901155508 82 314 6.1 15.6 0.00 0.39 0.22 30 1018.1
20260901154121 82 311 7.8 14.8 0.00 0.39 0.22 31 1018.1
20260901153508 82 305 5.2 14.8 0.00 0.39 0.22 31 1018.1
20260901152508 82 327 7.0 16.5 0.00 0.39 0.22 31 1018.1
20260901151121 82 318 9.6 22.6 0.00 0.39 0.22 31 1018.2
20260901150508 82 309 8.7 18.2 0.00 0.39 0.22 30 1018.2
20260901145507 82 288 9.6 20.0 0.00 0.39 0.22 31 1018.2
20260901144121 82 294 13.0 20.9 0.00 0.39 0.22 29 1018.2
20260901143507 82 315 11.3 20.0 0.00 0.39 0.22 32 1018.3
20260901142508 82 299 5.2 13.9 0.00 0.39 0.22 31 1018.4
20260901141121 82 325 7.0 17.4 0.00 0.39 0.22 31 1018.3
20260901140507 82 323 5.2 13.0 0.00 0.39 0.22 33 1018.4
20260901135508 81 302 9.6 19.1 0.00 0.39 0.22 33 1018.5
20260901134121 82 293 9.6 16.5 0.00 0.39 0.22 32 1018.5
20260901133508 81 285 11.3 21.7 0.00 0.39 0.22 32 1018.7
20260901132508 82 302 9.6 18.2 0.00 0.39 0.22 32 1018.7
20260901131121 81 298 11.3 20.0 0.00 0.39 0.22 33 1018.9
20260901125508 80 294 13.0 23.5 0.00 0.39 0.22 34 1019.0
20260901124120 81 294 14.8 26.1 0.00 0.39 0.22 33 1019.2
20260901123507 80 296 11.3 21.7 0.00 0.39 0.22 35 1019.2
20260901122507 80 302 13.0 26.9 0.00 0.39 0.22 35 1019.3
20260901121120 81 293 11.3 20.9 0.00 0.39 0.22 36 1019.4
20260901120508 79 305 10.4 18.2 0.00 0.39 0.22 36 1019.4
20260901115508 80 294 13.0 23.5 0.00 0.39 0.22 36 1019.5
20260901114120 80 296 12.2 23.5 0.00 0.39 0.22 37 1019.6
20260901113508 80 311 10.4 20.0 0.00 0.39 0.22 38 1019.6
20260901112507 78 302 11.3 24.3 0.00 0.39 0.22 41 1019.7
20260901111121 80 320 9.6 18.2 0.00 0.39 0.22 41 1019.7
20260901110508 79 300 8.7 18.2 0.00 0.39 0.22 40 1019.6
20260901105507 78 290 10.4 24.3 0.00 0.39 0.22 40 1019.8
20260901104121 78 286 9.6 18.2 0.00 0.39 0.22 41 1019.7
20260901103507 79 297 13.9 25.2 0.00 0.39 0.22 41 1019.7
20260901102508 78 293 12.2 22.6 0.00 0.39 0.22 41 1019.7
20260901101121 78 296 13.0 22.6 0.00 0.39 0.22 41 1019.8
20260901100508 78 299 13.9 20.9 0.00 0.39 0.22 42 1019.9
20260901095508 77 292 11.3 20.9 0.00 0.39 0.22 41 1020.0
20260901094121 77 303 13.0 23.5 0.00 0.39 0.22 42 1020.0
20260901093508 76 304 13.9 24.3 0.00 0.39 0.22 43 1020.1
20260901092508 77 307 10.4 21.7 0.00 0.39 0.22 44 1020.2
20260901091120 75 304 10.4 22.6 0.00 0.39 0.22 44 1020.3
20260901090508 75 286 6.1 14.8 0.00 0.39 0.22 46 1020.3
20260901085506 75 285 7.0 13.9 0.00 0.39 0.22 49 1020.3
20260901084121 75 297 6.1 13.0 0.00 0.39 0.22 50 1020.3
20260901083508 74 285 7.0 13.9 0.00 0.39 0.22 50 1020.3
20260901082508 74 289 7.8 14.8 0.00 0.39 0.22 52 1020.2
20260901081508 73 283 8.7 16.5 0.00 0.39 0.22 54 1020.3
20260901080508 73 280 7.8 14.8 0.00 0.39 0.22 55 1020.3
20260901075508 72 280 7.8 14.8 0.00 0.39 0.22 54 1020.2